Location: Chircca
(13.7944°S, 72.0608°W)
Time: 06:10:40
(UTC+00:00)

SJ-12 - Pass Details

Date: 14 July 2020
Orbit: 567 x 586 km, 97.7° (Epoch: 14 August)

Event Time Altitude Azimuth Distance (km) Brightness Sun altitude
Rises 09:47:29 0° 357° (N) 2,757 7.6 -20.3°
Reaches altitude 10° 09:49:44 10° 348° (NNW) 1,863 6.6 -19.8°
Enters shadow 09:53:07 36° 293° (WNW) 903 4.5 -19.0°
